Location: Buckeye Ditch
(40.9104°N, 122.9517°W)
Time: 12:53:54
(UTC+00:00)

Tiros 1 - Visible Passes

Search period start: 18 May 2025 00:00
Search period end: 28 May 2025 00:00
Orbit: 620 x 651 km, 48.4° (Epoch: 17 May)

Date Brightness Start Highest point End Pass type
(mag) Time Alt. Az. Time Alt. Az. Time Alt. Az.
18 May 8.6 03:59:24 10° W 04:03:43 38° NNW 04:08:04 10° NE visible
18 May 8.6 05:42:13 10° WNW 05:46:27 34° N 05:50:06 13° ENE visible
18 May 8.1 07:24:14 10° WNW 07:27:29 44° NW 07:27:29 44° NW visible
19 May 8.8 04:22:11 10° WNW 04:26:21 32° N 04:30:34 10° ENE visible
19 May 8.1 06:04:37 10° NW 06:09:03 42° NNE 06:10:58 28° ENE visible
19 May 9.0 07:46:34 10° WNW 07:48:22 23° WNW 07:48:22 23° WNW visible
20 May 8.7 04:44:50 10° WNW 04:49:00 33° N 04:53:14 10° ENE visible
20 May 7.3 06:26:54 10° WNW 06:31:32 64° NNE 06:31:54 61° NE visible
20 May 9.8 08:09:09 10° WNW 08:09:18 11° WNW 08:09:18 11° WNW visible
21 May 8.3 05:07:17 10° NW 05:11:38 39° NNE 05:15:27 13° E visible
21 May 7.6 06:49:12 10° WNW 06:52:51 53° W 06:52:51 53° W visible
22 May 7.6 05:29:35 10° WNW 05:34:09 56° NNE 05:36:26 28° E visible
22 May 8.8 07:11:42 10° WNW 07:13:50 24° W 07:13:50 24° W visible
23 May 8.4 04:09:55 10° NW 04:14:12 36° NNE 04:18:31 10° E visible
23 May 7.0 05:51:52 10° WNW 05:56:30 88° SSW 05:57:26 57° SE visible
23 May 9.7 07:34:44 10° W 07:34:50 10° W 07:34:50 10° W visible
24 May 7.8 04:32:14 10° NW 04:36:44 50° NNE 04:41:04 11° E visible
24 May 7.6 06:14:16 10° WNW 06:18:29 45° SW 06:18:29 45° SW visible
25 May 7.1 04:54:30 10° WNW 04:59:08 80° NNE 05:02:09 22° ESE visible
25 May 8.9 06:37:05 10° W 06:39:34 21° WSW 06:39:34 21° WSW visible
26 May 7.4 05:16:51 10° WNW 05:21:22 55° SW 05:23:17 32° SSE visible
27 May 8.3 05:39:30 10° W 05:43:25 27° SW 05:44:27 25° SSW visible
